Time,TemperatureF,DewpointF,PressureIn,WindDirection,WindDirectionDegrees,WindSpeedMPH,WindSpeedGustMPH,Humidity,HourlyPrecipIn,Conditions,Clouds,dailyrainin,SolarRadiationWatts/m^2,SoftwareType,DateUTC
2013-06-18 00:13:00,64.6,63.0,29.88,WSW,250,0.0,2.0,93,0.00,,,0.01,0,weatherlink.com 1.10,2013-06-18 04:13:00,
2013-06-18 00:28:00,64.5,63.0,29.87,WSW,250,0.0,0.0,93,0.00,,,0.01,0,weatherlink.com 1.10,2013-06-18 04:28:00,
2013-06-18 00:43:00,64.5,63.0,29.89,WSW,250,3.0,4.0,93,0.00,,,0.01,0,weatherlink.com 1.10,2013-06-18 04:43:00,
2013-06-18 00:58:00,64.3,62.0,29.88,South,184,0.0,2.0,93,0.00,,,0.01,0,weatherlink.com 1.10,2013-06-18 04:58:00,
2013-06-18 01:13:00,64.3,63.0,29.88,SW,221,5.0,6.0,94,0.00,,,0.01,0,weatherlink.com 1.10,2013-06-18 05:13:00,
2013-06-18 01:28:00,64.3,63.0,29.87,North,355,0.0,4.0,94,0.00,,,0.01,0,weatherlink.com 1.10,2013-06-18 05:28:00,
2013-06-18 01:43:00,64.2,63.0,29.87,North,355,1.0,1.0,94,0.00,,,0.01,0,weatherlink.com 1.10,2013-06-18 05:43:00,
2013-06-18 01:58:00,64.1,62.0,29.86,North,355,0.0,1.0,94,0.00,,,0.01,0,weatherlink.com 1.10,2013-06-18 05:58:00,
2013-06-18 02:13:00,64.1,62.0,29.87,North,355,0.0,0.0,94,0.00,,,0.01,0,weatherlink.com 1.10,2013-06-18 06:13:00,
2013-06-18 02:28:00,64.2,63.0,29.87,North,355,0.0,1.0,94,0.00,,,0.01,0,weatherlink.com 1.10,2013-06-18 06:28:00,
2013-06-18 02:43:00,64.0,62.0,29.86,North,355,0.0,0.0,94,0.00,,,0.01,0,weatherlink.com 1.10,2013-06-18 06:43:00,
2013-06-18 02:58:00,64.0,62.0,29.88,North,355,0.0,0.0,94,0.00,,,0.01,0,weatherlink.com 1.10,2013-06-18 06:58:00,
2013-06-18 03:13:00,63.8,62.0,29.87,North,355,0.0,0.0,94,0.00,,,0.01,0,weatherlink.com 1.10,2013-06-18 07:13:00,
2013-06-18 03:28:00,63.8,62.0,29.86,North,355,0.0,0.0,94,0.00,,,0.01,0,weatherlink.com 1.10,2013-06-18 07:28:00,
2013-06-18 03:43:00,63.8,62.0,29.86,North,355,0.0,0.0,94,0.00,,,0.01,0,weatherlink.com 1.10,2013-06-18 07:43:00,
2013-06-18 03:58:00,63.7,62.0,29.87,North,355,0.0,1.0,94,0.00,,,0.01,0,weatherlink.com 1.10,2013-06-18 07:58:00,
2013-06-18 04:13:00,63.9,62.0,29.87,North,355,0.0,1.0,94,0.00,,,0.01,0,weatherlink.com 1.10,2013-06-18 08:13:00,
2013-06-18 04:28:00,63.9,62.0,29.88,North,355,0.0,0.0,94,0.01,,,0.02,0,weatherlink.com 1.10,2013-06-18 08:28:00,
2013-06-18 04:43:00,64.0,62.0,29.88,North,355,0.0,0.0,94,0.01,,,0.02,0,weatherlink.com 1.10,2013-06-18 08:43:00,
2013-06-18 04:58:00,64.0,62.0,29.88,North,355,0.0,0.0,94,0.01,,,0.02,0,weatherlink.com 1.10,2013-06-18 08:58:00,
2013-06-18 05:13:00,64.1,63.0,29.88,North,355,0.0,1.0,95,0.01,,,0.02,0,weatherlink.com 1.10,2013-06-18 09:13:00,
2013-06-18 05:29:00,63.5,62.0,29.89,NW,314,0.0,7.0,94,0.29,,,0.31,0,weatherlink.com 1.10,2013-06-18 09:29:00,
2013-06-18 05:44:00,63.4,62.0,29.89,WSW,255,0.0,5.0,94,0.34,,,0.36,0,weatherlink.com 1.10,2013-06-18 09:44:00,
2013-06-18 05:59:00,63.4,62.0,29.89,ENE,69,0.0,5.0,94,0.35,,,0.37,0,weatherlink.com 1.10,2013-06-18 09:59:00,
2013-06-18 06:14:00,63.1,61.0,29.90,WSW,246,0.0,4.0,94,0.35,,,0.37,0,weatherlink.com 1.10,2013-06-18 10:14:00,
2013-06-18 06:29:00,63.0,61.0,29.89,WSW,246,0.0,0.0,94,0.06,,,0.37,0,weatherlink.com 1.10,2013-06-18 10:29:00,
2013-06-18 06:44:00,62.9,61.0,29.90,WSW,246,0.0,0.0,94,0.01,,,0.37,0,weatherlink.com 1.10,2013-06-18 10:44:00,
2013-06-18 06:59:00,62.9,62.0,29.90,WSW,246,0.0,0.0,95,0.01,,,0.38,0,weatherlink.com 1.10,2013-06-18 10:59:00,
2013-06-18 07:14:00,63.1,62.0,29.91,WSW,246,0.0,0.0,95,0.01,,,0.38,0,weatherlink.com 1.10,2013-06-18 11:14:00,
2013-06-18 07:29:00,63.4,62.0,29.91,WSW,246,0.0,0.0,95,0.01,,,0.38,9,weatherlink.com 1.10,2013-06-18 11:29:00,
2013-06-18 07:44:00,63.5,62.0,29.92,WSW,246,0.0,1.0,95,0.01,,,0.38,37,weatherlink.com 1.10,2013-06-18 11:44:00,
2013-06-18 07:59:00,64.1,63.0,29.92,WSW,246,0.0,1.0,95,0.00,,,0.38,74,weatherlink.com 1.10,2013-06-18 11:59:00,
2013-06-18 08:14:00,64.5,63.0,29.92,WSW,246,0.0,1.0,95,0.00,,,0.38,114,weatherlink.com 1.10,2013-06-18 12:14:00,
2013-06-18 08:29:00,65.0,64.0,29.92,WSW,246,0.0,1.0,96,0.00,,,0.38,141,weatherlink.com 1.10,2013-06-18 12:29:00,
2013-06-18 08:44:00,66.0,65.0,29.92,WSW,246,0.0,1.0,96,0.00,,,0.38,315,weatherlink.com 1.10,2013-06-18 12:44:00,
2013-06-18 08:59:00,67.5,66.0,29.91,WSW,246,0.0,4.0,95,0.00,,,0.38,371,weatherlink.com 1.10,2013-06-18 12:59:00,
2013-06-18 09:14:00,68.4,65.0,29.92,SW,232,0.0,5.0,88,0.00,,,0.38,425,weatherlink.com 1.10,2013-06-18 13:14:00,
2013-06-18 09:29:00,69.8,66.0,29.91,WSW,245,1.0,4.0,86,0.00,,,0.38,476,weatherlink.com 1.10,2013-06-18 13:29:00,
2013-06-18 09:44:00,71.2,66.0,29.91,SW,215,4.0,4.0,83,0.00,,,0.38,520,weatherlink.com 1.10,2013-06-18 13:44:00,
2013-06-18 09:59:00,72.3,67.0,29.91,SW,226,1.0,6.0,82,0.00,,,0.38,575,weatherlink.com 1.10,2013-06-18 13:59:00,
2013-06-18 10:14:00,73.0,66.0,29.91,SW,223,1.0,7.0,78,0.00,,,0.38,613,weatherlink.com 1.10,2013-06-18 14:14:00,
2013-06-18 10:29:00,73.8,67.0,29.91,SW,221,0.0,5.0,79,0.00,,,0.38,659,weatherlink.com 1.10,2013-06-18 14:29:00,
2013-06-18 10:44:00,74.5,68.0,29.91,SSW,201,0.0,8.0,79,0.00,,,0.38,703,weatherlink.com 1.10,2013-06-18 14:44:00,
2013-06-18 10:59:00,75.1,68.0,29.90,SW,234,0.0,5.0,78,0.00,,,0.38,740,weatherlink.com 1.10,2013-06-18 14:59:00,
2013-06-18 11:14:00,75.7,68.0,29.90,NNW,346,0.0,6.0,76,0.00,,,0.38,777,weatherlink.com 1.10,2013-06-18 15:14:00,
2013-06-18 11:29:00,76.4,67.0,29.90,SSW,212,0.0,7.0,73,0.00,,,0.38,810,weatherlink.com 1.10,2013-06-18 15:29:00,
2013-06-18 11:44:00,77.4,68.0,29.90,SW,223,5.0,6.0,72,0.00,,,0.38,842,weatherlink.com 1.10,2013-06-18 15:44:00,
2013-06-18 11:59:00,78.0,69.0,29.90,SW,216,3.0,8.0,73,0.00,,,0.38,867,weatherlink.com 1.10,2013-06-18 15:59:00,
2013-06-18 12:14:00,78.7,69.0,29.91,WNW,291,0.0,6.0,72,0.00,,,0.38,895,weatherlink.com 1.10,2013-06-18 16:14:00,
2013-06-18 12:29:00,79.2,69.0,29.90,SW,229,3.0,6.0,71,0.00,,,0.38,909,weatherlink.com 1.10,2013-06-18 16:29:00,
2013-06-18 12:44:00,79.3,69.0,29.90,SW,234,0.0,6.0,71,0.00,,,0.38,925,weatherlink.com 1.10,2013-06-18 16:44:00,
2013-06-18 12:59:00,80.4,67.0,29.89,SW,230,4.0,5.0,64,0.00,,,0.38,946,weatherlink.com 1.10,2013-06-18 16:59:00,
2013-06-18 13:14:00,81.3,67.0,29.89,SSW,207,1.0,5.0,63,0.00,,,0.38,995,weatherlink.com 1.10,2013-06-18 17:14:00,
2013-06-18 13:29:00,82.1,67.0,29.89,South,169,1.0,5.0,61,0.00,,,0.38,965,weatherlink.com 1.10,2013-06-18 17:29:00,
2013-06-18 13:44:00,82.9,69.0,29.88,ENE,57,1.0,5.0,64,0.00,,,0.38,1083,weatherlink.com 1.10,2013-06-18 17:44:00,
2013-06-18 13:59:00,82.9,69.0,29.89,NE,38,0.0,4.0,64,0.00,,,0.38,1056,weatherlink.com 1.10,2013-06-18 17:59:00,
2013-06-18 14:14:00,84.1,66.0,29.89,NE,50,0.0,2.0,55,0.00,,,0.38,1083,weatherlink.com 1.10,2013-06-18 18:14:00,
2013-06-18 14:29:00,83.8,68.0,29.88,ENE,69,1.0,4.0,60,0.00,,,0.00,1058,weatherlink.com 1.10,2013-06-18 18:29:00,
2013-06-18 14:44:00,84.7,68.0,29.88,SW,229,0.0,5.0,57,0.00,,,0.00,1067,weatherlink.com 1.10,2013-06-18 18:44:00,
2013-06-18 14:59:00,85.3,67.0,29.88,NW,325,3.0,9.0,55,0.00,,,0.00,1049,weatherlink.com 1.10,2013-06-18 18:59:00,
2013-06-18 15:14:00,85.2,66.0,29.88,WSW,248,2.0,6.0,53,0.00,,,0.00,1049,weatherlink.com 1.10,2013-06-18 19:14:00,
2013-06-18 15:29:00,86.2,68.0,29.88,ESE,105,3.0,5.0,54,0.00,,,0.00,1123,weatherlink.com 1.10,2013-06-18 19:29:00,
2013-06-18 15:44:00,85.3,66.0,29.87,NNE,17,1.0,5.0,53,0.00,,,0.00,1025,weatherlink.com 1.10,2013-06-18 19:44:00,
2013-06-18 15:59:00,85.2,68.0,29.87,NNE,32,0.0,2.0,56,0.00,,,0.00,171,weatherlink.com 1.10,2013-06-18 19:59:00,
2013-06-18 16:14:00,83.3,71.0,29.87,NNE,32,0.0,0.0,67,0.00,,,0.00,893,weatherlink.com 1.10,2013-06-18 20:14:00,
2013-06-18 16:29:00,83.4,67.0,29.86,WSW,238,0.0,5.0,59,0.00,,,0.00,543,weatherlink.com 1.10,2013-06-18 20:29:00,
2013-06-18 16:44:00,83.8,70.0,29.86,South,170,0.0,1.0,63,0.00,,,0.00,550,weatherlink.com 1.10,2013-06-18 20:44:00,
2013-06-18 16:59:00,82.1,70.0,29.85,SW,227,0.0,1.0,66,0.00,,,0.00,105,weatherlink.com 1.10,2013-06-18 20:59:00,
2013-06-18 17:14:00,79.7,69.0,29.86,SW,227,0.0,1.0,70,0.00,,,0.00,84,weatherlink.com 1.10,2013-06-18 21:14:00,
2013-06-18 17:30:00,78.3,69.0,29.86,SW,227,0.0,0.0,73,0.00,,,0.00,37,weatherlink.com 1.10,2013-06-18 21:30:00,
2013-06-18 17:45:00,77.0,70.0,29.86,SW,227,0.0,1.0,79,0.00,,,0.00,33,weatherlink.com 1.10,2013-06-18 21:45:00,
2013-06-18 18:00:00,75.7,70.0,29.85,South,184,0.0,4.0,81,0.00,,,0.00,39,weatherlink.com 1.10,2013-06-18 22:00:00,
2013-06-18 18:15:00,75.1,70.0,29.85,WSW,240,0.0,6.0,83,0.00,,,0.00,62,weatherlink.com 1.10,2013-06-18 22:15:00,
2013-06-18 18:30:00,74.6,70.0,29.86,WSW,240,0.0,2.0,85,0.00,,,0.00,49,weatherlink.com 1.10,2013-06-18 22:30:00,
2013-06-18 18:45:00,73.2,67.0,29.88,WSW,239,6.0,13.0,80,0.00,,,0.00,40,weatherlink.com 1.10,2013-06-18 22:45:00,
2013-06-18 19:00:00,70.8,65.0,29.90,SSW,193,7.0,9.0,83,0.00,,,0.00,14,weatherlink.com 1.10,2013-06-18 23:00:00,
2013-06-18 19:15:00,68.0,63.0,29.90,SW,236,6.0,7.0,84,0.02,,,0.02,21,weatherlink.com 1.10,2013-06-18 23:15:00,
2013-06-18 19:30:00,65.9,62.0,29.87,SW,223,4.0,7.0,87,0.02,,,0.02,51,weatherlink.com 1.10,2013-06-18 23:30:00,
2013-06-18 19:45:00,66.1,64.0,29.91,SSE,167,0.0,2.0,91,0.02,,,0.02,104,weatherlink.com 1.10,2013-06-18 23:45:00,
2013-06-18 20:15:00,66.8,65.0,29.90,NNE,19,0.0,1.0,92,0.00,,,0.02,88,weatherlink.com 1.10,2013-06-19 00:15:00,
2013-06-18 20:30:00,67.0,65.0,29.89,NNE,19,0.0,1.0,92,0.00,,,0.02,26,weatherlink.com 1.10,2013-06-19 00:30:00,
2013-06-18 20:45:00,66.8,65.0,29.90,NNE,19,0.0,1.0,92,0.00,,,0.02,11,weatherlink.com 1.10,2013-06-19 00:45:00,
2013-06-18 21:00:00,66.2,64.0,29.91,NNE,19,0.0,1.0,92,0.00,,,0.02,7,weatherlink.com 1.10,2013-06-19 01:00:00,
2013-06-18 21:15:00,65.9,64.0,29.91,NNE,19,0.0,0.0,92,0.00,,,0.02,0,weatherlink.com 1.10,2013-06-19 01:15:00,
2013-06-18 21:30:00,65.6,63.0,29.91,NNE,19,0.0,2.0,92,0.00,,,0.02,0,weatherlink.com 1.10,2013-06-19 01:30:00,
2013-06-18 21:45:00,65.3,63.0,29.92,NNE,19,0.0,1.0,93,0.00,,,0.02,0,weatherlink.com 1.10,2013-06-19 01:45:00,
2013-06-18 22:00:00,65.0,63.0,29.93,NNE,19,0.0,0.0,93,0.00,,,0.02,0,weatherlink.com 1.10,2013-06-19 02:00:00,
2013-06-18 22:15:00,65.2,63.0,29.94,SSW,198,2.0,3.0,93,0.00,,,0.02,0,weatherlink.com 1.10,2013-06-19 02:15:00,
2013-06-18 22:30:00,65.2,64.0,29.95,WNW,300,1.0,5.0,94,0.00,,,0.02,0,weatherlink.com 1.10,2013-06-19 02:30:00,
2013-06-18 22:45:00,65.1,63.0,29.97,WNW,288,1.0,6.0,94,0.02,,,0.04,0,weatherlink.com 1.10,2013-06-19 02:45:00,
2013-06-18 23:00:00,64.6,63.0,29.98,SSE,155,1.0,5.0,94,0.15,,,0.17,0,weatherlink.com 1.10,2013-06-19 03:00:00,
2013-06-18 23:15:00,64.4,63.0,29.98,SW,219,0.0,1.0,94,0.26,,,0.28,0,weatherlink.com 1.10,2013-06-19 03:15:00,
2013-06-18 23:30:00,64.4,63.0,29.97,SW,219,0.0,1.0,94,0.29,,,0.31,0,weatherlink.com 1.10,2013-06-19 03:30:00,
2013-06-18 23:45:00,64.3,63.0,29.97,SW,219,0.0,0.0,94,0.27,,,0.31,0,weatherlink.com 1.10,2013-06-19 03:45:00,